Flag for Switzerland Weather past 2 weeks in Lugano, Switzerland

Now
88 °F

Scattered clouds.


Feels Like: 89 °F
Forecast: 68 / 89 °F
Wind: 8 mph from South

Location: Lugano Airport

Current Time: Jul 1, 2015 at 5:15:03 PM

Latest Report: Jul 1, 2015 at 4:50 PM


Visibility: N/A

Pressure: 30.12 "Hg

Humidity: 46%

Dew point: 64 °F

Location of LuganoLocation

Historic Weather in Lugano — Graph

°F

Lugano temperature yesterday

Maximum temperature yesterday: 86 °F (at 3:50 PM)
Minimum temperature yesterday: 64 °F (at 5:20 AM)
Average temperature yesterday: 74 °F

Past Weeks' High & Low Weather Summary

 TemperatureHumidityPressure
High88 °F (Jun 28, 4:50 PM)100% (Jun 16, 6:20 PM)30.21 "Hg (Jun 16, 6:20 PM)
Low55 °F (Jun 17, 5:20 AM)24% (Jun 19, 5:50 PM)29.74 "Hg (Jun 23, 12:20 PM)
Average70 °F64%30.03 "Hg
* Reported Jun 16 4:20 PM — Jul 1 4:20 PM, Lugano, Weather by CustomWeather, © 2015

Note: Actual official high and low records may vary slightly from our data, if they occured in-between our weather recording intervals... More about our weather records

Advertising

Lugano weather history for previous 24 hours

 ConditionsComfort  
Time TempWeatherWind HumidityBarometerVisibility
4:20 PM
Wed, Jul 1
88 °FScattered clouds.8 mph49%30.12 "HgN/A
3:50 PM88 °FPassing clouds.9 mph46%30.12 "HgN/A
3:20 PM88 °FScattered clouds.8 mph46%30.12 "HgN/A
2:50 PM88 °FScattered clouds.8 mph46%30.12 "HgN/A
2:20 PM86 °FScattered clouds.8 mph49%30.12 "HgN/A
1:50 PM86 °FPassing clouds.6 mph49%30.12 "HgN/A
1:20 PM84 °FPassing clouds.5 mph51%30.15 "HgN/A
12:50 PM84 °FPassing clouds.6 mph51%30.15 "HgN/A
12:20 PM82 °FPassing clouds.6 mph55%30.15 "HgN/A
11:50 AM82 °FPassing clouds.7 mph55%30.15 "HgN/A
11:20 AM81 °FPassing clouds.6 mph58%30.15 "HgN/A
10:50 AM81 °FPassing clouds.6 mph54%30.15 "HgN/A
10:20 AM79 °FPassing clouds.6 mph61%30.15 "HgN/A
9:50 AM77 °FPassing clouds.3 mph69%30.15 "HgN/A
9:20 AM79 °FPassing clouds.1 mph61%30.15 "HgN/A
8:50 AM75 °FPassing clouds.1 mph69%30.15 "HgN/A
8:20 AM75 °FPassing clouds.1 mph74%30.18 "HgN/A
7:50 AM73 °FPassing clouds.2 mph78%30.18 "HgN/A
7:20 AM72 °FPassing clouds.2 mph78%30.18 "HgN/A
6:50 AM70 °FScattered clouds.3 mph88%30.18 "HgN/A
6:20 AM70 °FPartly cloudy.3 mph88%30.18 "HgN/A
5:50 AM72 °FPassing clouds.2 mph78%30.18 "HgN/A
5:20 AM72 °FFog.1 mph78%30.15 "Hg1 mi
4:50 AM72 °FMostly cloudy.1 mph78%30.15 "HgN/A
4:20 AM72 °FOvercast.1 mph78%30.15 "HgN/A
3:50 AM72 °FOvercast.2 mph78%30.15 "HgN/A
3:20 AM72 °FOvercast.1 mph78%30.15 "HgN/A
2:50 AM72 °FOvercast.2 mph73%30.15 "HgN/A
2:20 AM72 °FOvercast.2 mph78%30.15 "HgN/A
1:50 AM72 °FOvercast.2 mph73%30.15 "HgN/A
1:20 AM72 °FOvercast.2 mph73%30.15 "HgN/A
12:50 AM72 °FOvercast.1 mph73%30.15 "HgN/A
12:20 AM72 °FOvercast.1 mph73%30.15 "HgN/A
11:50 PM
Tue, Jun 30
72 °FPassing clouds.2 mph73%30.15 "HgN/A
11:20 PM72 °FMild.2 mph78%30.15 "HgN/A
10:50 PM72 °FClear.2 mph73%30.15 "Hg10 mi
10:20 PM73 °FMild.2 mph74%30.15 "HgN/A
9:50 PM75 °FSunny.1 mph74%30.12 "Hg10 mi
9:20 PM77 °FSunny.1 mph69%30.12 "Hg10 mi
8:50 PM77 °FPassing clouds.2 mph65%30.09 "HgN/A
8:20 PM81 °FPassing clouds.1 mph54%30.09 "HgN/A
7:50 PM82 °FPassing clouds.2 mph51%30.09 "HgN/A
6:50 PM84 °FPassing clouds.6 mph45%30.09 "HgN/A
6:20 PM84 °FPassing clouds.7 mph45%30.09 "HgN/A
5:50 PM86 °FPassing clouds.7 mph43%30.09 "HgN/A
Weather by CustomWeather, © 2015

See weather overviewHow to use our weather pages